Weather History for New River MCAS, NC

Change the Weather History Date:

Wednesday, March 5, 2014

  Actual Average Record
Temperature  
Mean Temperature 36 °F -  
Max Temperature 39 °F 60 °F 79 °F (2004)
Min Temperature 32 °F 39 °F 24 °F (2002)
Degree Days  
Heating Degree Days 30    
Moisture  
Dew Point 32 °F    
Average Humidity 87    
Maximum Humidity 93    
Minimum Humidity 78    
Precipitation  
Precipitation 0.11 in - - ()
Sea Level Pressure  
Sea Level Pressure 30.19 in    
Wind  
Wind Speed 9 mph (North)    
Max Wind Speed 13 mph    
Max Gust Speed -    
Visibility 7 miles    
Events Rain    
Averages and records for this station are not official NWS values.
T = Trace of Precipitation, MM = Missing Value Source: NWS Daily Summary

Daily Weather History Graph

Daily Weather History Graph

Search for Another Location

Airport:

Trip Planner

Search our weather history database for the weather conditions in past years. The results will help you decide how hot, cold, wet, or windy it might be!

Date:

Astronomy

Mar. 05, 2014 Rise Set
Actual Time 6:33 AM EST 6:09 PM EST
Civil Twilight 6:08 AM EST 6:34 PM EST
Nautical Twilight 5:39 AM EST 7:03 PM EST
Astronomical Twilight 5:10 AM EST 7:32 PM EST
Moon 9:10 AM EST (3/5) 11:02 PM EST (3/5)
Length of Visible Light 12h 25m
Length of Day
11h 35m
Waxing Crescent, 23% of the Moon is Illuminated
Mar 5
Waxing Crescent
Mar 8
First Quarter
Mar 16
Full
Mar 23
Last Quarter
Mar 30
New

Hourly Weather History & Observations

Time (EST) Temp. Windchill Dew Point Humidity Pressure Visibility Wind Dir Wind Speed Gust Speed Precip Events Conditions
12:56 AM 32.0 °F 24.2 °F 28.0 °F 85% 30.20 in 10.0 mi North 9.2 mph - N/A   Overcast
1:56 AM 32.0 °F 24.2 °F 28.0 °F 85% 30.18 in 10.0 mi North 9.2 mph - N/A   Overcast
2:05 AM 32.0 °F 23.0 °F 28.0 °F 85% 30.16 in 10.0 mi North 11.5 mph - N/A   Overcast
2:56 AM 32.0 °F 22.5 °F 28.0 °F 85% 30.16 in 10.0 mi NNW 12.7 mph - N/A   Overcast
3:56 AM 32.0 °F 25.6 °F 28.0 °F 85% 30.14 in 10.0 mi North 6.9 mph - 0.00 in   Overcast
4:56 AM 32.0 °F 23.0 °F 27.0 °F 82% 30.14 in 10.0 mi North 11.5 mph - N/A   Overcast
5:56 AM 33.1 °F 24.9 °F 27.0 °F 78% 30.19 in 10.0 mi NNW 10.4 mph - 0.00 in Rain Light Rain
6:25 AM 32.0 °F 26.4 °F 28.0 °F 85% 30.20 in 10.0 mi NNW 5.8 mph - 0.00 in   Overcast
6:56 AM 32.0 °F 24.2 °F 28.0 °F 85% 30.21 in 7.0 mi NNW 9.2 mph - 0.01 in   Overcast
7:37 AM 32.0 °F 24.8 °F 30.0 °F 92% 30.20 in 4.0 mi North 8.1 mph - 0.01 in   Overcast
7:47 AM 33.1 °F 25.5 °F 30.0 °F 89% 30.20 in 5.0 mi North 9.2 mph - 0.01 in   Overcast
7:56 AM 33.1 °F 25.5 °F 30.0 °F 89% 30.21 in 5.0 mi North 9.2 mph - 0.01 in   Overcast
8:28 AM 33.1 °F 26.1 °F 30.9 °F 92% 30.19 in 5.0 mi North 8.1 mph - 0.00 in   Overcast
8:40 AM 33.1 °F 24.9 °F 30.0 °F 89% 30.18 in 5.0 mi North 10.4 mph - 0.00 in Rain Light Rain
8:56 AM 33.1 °F 26.1 °F 30.9 °F 92% 30.19 in 5.0 mi North 8.1 mph - 0.00 in   Overcast
9:56 AM 35.1 °F 27.9 °F 32.0 °F 89% 30.20 in 5.0 mi North 9.2 mph - 0.00 in Rain Light Rain
10:56 AM 35.1 °F 28.6 °F 33.1 °F 92% 30.19 in 5.0 mi NNW 8.1 mph - 0.00 in   Overcast
11:56 AM 37.0 °F 29.8 °F 34.0 °F 89% 30.17 in 5.0 mi North 10.4 mph - N/A   Overcast
12:49 PM 37.0 °F 29.3 °F 35.1 °F 93% 30.15 in 4.0 mi North 11.5 mph - 0.00 in Rain Light Rain
12:56 PM 37.0 °F 29.3 °F 34.0 °F 89% 30.15 in 4.0 mi North 11.5 mph - 0.00 in Rain Light Rain
1:56 PM 37.9 °F 30.9 °F 35.1 °F 89% 30.14 in 4.0 mi North 10.4 mph - 0.01 in Rain Light Rain
2:03 PM 37.9 °F 30.9 °F 35.1 °F 89% 30.13 in 4.0 mi North 10.4 mph - 0.00 in Rain Light Rain
2:56 PM 39.0 °F 34.0 °F 36.0 °F 89% 30.16 in 4.0 mi North 6.9 mph - 0.01 in Rain Light Rain
3:56 PM 39.0 °F 34.8 °F 37.0 °F 93% 30.17 in 4.0 mi NNE 5.8 mph - 0.02 in Rain Light Rain
4:05 PM 39.0 °F 34.0 °F 37.0 °F 93% 30.16 in 4.0 mi NNE 6.9 mph - 0.00 in Rain Light Rain
4:56 PM 39.0 °F 35.7 °F 37.0 °F 93% 30.15 in 4.0 mi NNE 4.6 mph - 0.03 in Rain Light Rain
5:56 PM 39.9 °F 33.9 °F 37.0 °F 89% 30.19 in 6.0 mi NNW 9.2 mph - 0.02 in Rain Light Rain
6:56 PM 39.9 °F 33.9 °F 36.0 °F 86% 30.18 in 10.0 mi North 9.2 mph - 0.00 in   Overcast
7:56 PM 39.0 °F 33.4 °F 35.1 °F 86% 30.19 in 10.0 mi North 8.1 mph - 0.00 in   Scattered Clouds
8:56 PM 39.0 °F 34.8 °F 34.0 °F 82% 30.21 in 10.0 mi North 5.8 mph - N/A   Overcast
9:56 PM 39.0 °F 33.4 °F 33.1 °F 79% 30.24 in 10.0 mi North 8.1 mph - N/A   Overcast
10:52 PM 37.4 °F 33.8 °F 32.0 °F 81% 30.24 in 10.0 mi NNE 4.6 mph - N/A   Overcast
10:56 PM 37.0 °F 33.3 °F 32.0 °F 82% 30.25 in 10.0 mi NNE 4.6 mph - N/A   Overcast
11:49 PM 36.0 °F 29.0 °F 30.9 °F 82% 30.24 in 10.0 mi NNE 9.2 mph - N/A   Scattered Clouds
11:56 PM 36.0 °F 29.0 °F 30.9 °F 82% 30.25 in 10.0 mi North 9.2 mph - N/A   Partly Cloudy